Location: Street
(51.1247°N, 2.7429°W)
Time: 23:57:10
(UTC+00:00)

SR - Visible Passes

Search period start: 05 December 2020 00:00
Search period end: 15 December 2020 00:00
Orbit: 579 x 877 km, 66.7° (Epoch: 05 December)

Date Brightness Start Highest point End Pass type
(mag) Time Alt. Az. Time Alt. Az. Time Alt. Az.
05 Dec ? 18:00:14 10° SW 18:04:37 56° NW 18:07:39 21° NNE visible
05 Dec ? 19:44:29 10° WNW 19:47:03 18° NNW 19:47:03 18° NNW visible
06 Dec ? 17:10:23 10° SSW 17:14:49 83° SE 17:19:23 11° NE visible
06 Dec ? 18:53:41 10° W 18:57:30 25° NNW 18:58:48 22° N visible
07 Dec ? 18:03:10 10° WSW 18:07:22 36° NW 18:10:30 18° NNE visible
07 Dec ? 19:48:01 10° NW 19:49:55 15° NNW 19:49:55 15° NNW visible
08 Dec ? 17:12:58 10° SW 17:17:24 59° NW 17:22:11 10° NNE visible
08 Dec ? 18:57:08 10° WNW 19:00:31 19° NNW 19:01:35 18° N visible
09 Dec ? 18:06:22 10° W 18:10:15 26° NNW 18:13:15 15° NNE visible
09 Dec ? 19:51:28 10° NW 19:52:39 13° NNW 19:52:39 13° NNW visible
10 Dec ? 17:15:52 10° WSW 17:20:07 38° NW 17:24:45 10° NNE visible
10 Dec ? 19:00:39 10° NW 19:03:37 16° NNW 19:04:16 16° N visible
11 Dec ? 18:09:46 10° WNW 18:13:15 20° NNW 18:15:54 14° NNE visible
11 Dec ? 19:54:40 10° NNW 19:55:17 12° NNW 19:55:17 12° NNW visible
12 Dec ? 17:19:02 10° W 17:22:59 27° NNW 17:27:14 10° NNE visible
12 Dec ? 19:04:07 10° NW 19:06:48 14° N 19:06:53 14° N visible
13 Dec ? 18:13:17 10° NW 18:16:21 16° NNW 18:18:29 13° NNE visible
13 Dec ? 19:57:32 10° NNW 19:57:53 11° NNW 19:57:53 11° NNW visible
14 Dec ? 17:22:24 10° WNW 17:25:58 20° NNW 17:29:46 10° NNE visible
14 Dec ? 19:07:20 10° NNW 19:09:28 14° N 19:09:28 14° N visible
